| time (UTC) | temp F | wind direction | speed MPH | gust MPH | rain 1hr in | rain 24hr in | rain mn in | humidity % | barometer mb |
| 20260505003030 | 62 | 195 | 0.0 | 1.0 | 0.00 | 0.00 | 0.00 | 46 | 1003.7 |
| 20260505002030 | 62 | 195 | 0.0 | 1.0 | 0.00 | 0.00 | 0.00 | 45 | 1003.6 |
| 20260505001030 | 62 | 195 | 0.0 | 3.0 | 0.00 | 0.00 | 0.00 | 46 | 1003.7 |
| 20260505000030 | 63 | 195 | 2.0 | 3.0 | 0.00 | 0.00 | 0.00 | 44 | 1003.6 |
| 20260504235029 | 64 | 195 | 1.0 | 4.0 | 0.00 | 0.00 | 0.00 | 45 | 1003.5 |
| 20260504234029 | 64 | 195 | 3.0 | 5.0 | 0.00 | 0.00 | 0.00 | 43 | 1003.5 |
| 20260504233029 | 66 | 195 | 4.0 | 6.0 | 0.00 | 0.00 | 0.00 | 41 | 1003.4 |
| 20260504232029 | 66 | 196 | 4.0 | 6.0 | 0.00 | 0.00 | 0.00 | 40 | 1003.4 |
| 20260504231029 | 67 | 196 | 4.0 | 12.0 | 0.00 | 0.00 | 0.00 | 38 | 1003.4 |
| 20260504230059 | 68 | 195 | 9.0 | 10.0 | 0.00 | 0.00 | 0.00 | 35 | 1003.6 |
| 20260504225029 | 68 | 198 | 4.0 | 10.0 | 0.00 | 0.00 | 0.00 | 37 | 1003.6 |
| 20260504224029 | 69 | 202 | 4.0 | 12.0 | 0.00 | 0.00 | 0.00 | 35 | 1003.7 |
| 20260504223029 | 69 | 191 | 11.0 | 11.0 | 0.00 | 0.00 | 0.00 | 35 | 1003.8 |
| 20260504222029 | 70 | 212 | 9.0 | 11.0 | 0.00 | 0.00 | 0.00 | 34 | 1003.8 |
| 20260504221029 | 70 | 215 | 9.0 | 13.0 | 0.00 | 0.00 | 0.00 | 32 | 1003.8 |
| 20260504220029 | 70 | 223 | 8.0 | 13.0 | 0.00 | 0.00 | 0.00 | 32 | 1003.8 |
| 20260504215029 | 70 | 231 | 6.0 | 16.0 | 0.00 | 0.00 | 0.00 | 34 | 1003.8 |
| 20260504214029 | 69 | 214 | 7.0 | 18.0 | 0.00 | 0.00 | 0.00 | 38 | 1003.9 |
| 20260504213029 | 69 | 203 | 9.0 | 23.0 | 0.00 | 0.00 | 0.00 | 36 | 1004.0 |
| 20260504212029 | 69 | 158 | 18.0 | 23.0 | 0.00 | 0.00 | 0.00 | 33 | 1004.0 |
| 20260504211059 | 69 | 244 | 7.0 | 18.0 | 0.00 | 0.00 | 0.00 | 35 | 1004.1 |
| 20260504210029 | 69 | 219 | 13.0 | 21.0 | 0.00 | 0.00 | 0.00 | 36 | 1004.1 |
| 20260504205029 | 70 | 223 | 8.0 | 18.0 | 0.00 | 0.00 | 0.00 | 36 | 1004.0 |
| 20260504203029 | 69 | 213 | 11.0 | 21.0 | 0.00 | 0.00 | 0.00 | 35 | 1004.3 |
| 20260504201028 | 69 | 220 | 13.0 | 18.0 | 0.00 | 0.00 | 0.00 | 39 | 1004.6 |
| 20260504200029 | 69 | 219 | 11.0 | 18.0 | 0.00 | 0.00 | 0.00 | 37 | 1004.7 |
| 20260504195029 | 68 | 221 | 12.0 | 19.0 | 0.00 | 0.00 | 0.00 | 40 | 1004.7 |
| 20260504192028 | 68 | 211 | 5.0 | 25.0 | 0.00 | 0.00 | 0.00 | 43 | 1005.1 |
| 20260504191028 | 67 | 226 | 7.0 | 25.0 | 0.00 | 0.00 | 0.00 | 40 | 1005.3 |
| 20260504190058 | 68 | 222 | 10.0 | 23.0 | 0.00 | 0.00 | 0.00 | 40 | 1005.4 |
| 20260504185028 | 67 | 204 | 10.0 | 21.0 | 0.00 | 0.00 | 0.00 | 42 | 1005.5 |
| 20260504184028 | 66 | 212 | 12.0 | 20.0 | 0.00 | 0.00 | 0.00 | 41 | 1005.5 |
| 20260504183058 | 67 | 250 | 10.0 | 18.0 | 0.00 | 0.00 | 0.00 | 45 | 1005.7 |
| 20260504182028 | 66 | 252 | 7.0 | 21.0 | 0.00 | 0.00 | 0.00 | 43 | 1005.6 |
| 20260504181028 | 66 | 273 | 18.0 | 22.0 | 0.00 | 0.00 | 0.00 | 45 | 1005.6 |
| 20260504180058 | 66 | 236 | 10.0 | 22.0 | 0.00 | 0.00 | 0.00 | 45 | 1005.8 |
| 20260504175058 | 65 | 227 | 9.0 | 22.0 | 0.00 | 0.00 | 0.00 | 46 | 1006.2 |
| 20260504174028 | 65 | 216 | 8.0 | 23.0 | 0.00 | 0.00 | 0.00 | 50 | 1006.1 |
| 20260504173059 | 64 | 222 | 13.0 | 23.0 | 0.00 | 0.00 | 0.00 | 46 | 1006.0 |
| 20260504172028 | 64 | 211 | 22.0 | 23.0 | 0.00 | 0.00 | 0.00 | 46 | 1006.1 |
| 20260504171028 | 64 | 188 | 14.0 | 18.0 | 0.00 | 0.00 | 0.00 | 49 | 1006.0 |
| 20260504151027 | 58 | 211 | 8.0 | 20.0 | 0.00 | 0.00 | 0.00 | 51 | 1007.0 |
| 20260504081026 | 45 | 200 | 6.0 | 6.0 | 0.00 | 0.00 | 0.00 | 62 | 1008.0 |
| 20260504045055 | 49 | 206 | 5.0 | 7.0 | 0.00 | 0.00 | 0.00 | 57 | 1008.6 |
| 20260504044055 | 49 | 207 | 7.0 | 9.0 | 0.00 | 0.00 | 0.00 | 55 | 1008.6 |
| 20260504043025 | 50 | 208 | 6.0 | 10.0 | 0.00 | 0.00 | 0.00 | 53 | 1008.6 |
| 20260504042055 | 51 | 211 | 6.0 | 10.0 | 0.00 | 0.00 | 0.00 | 52 | 1008.7 |
| 20260504041025 | 51 | 212 | 4.0 | 13.0 | 0.00 | 0.00 | 0.00 | 53 | 1008.7 |
| 20260504040055 | 51 | 219 | 7.0 | 11.0 | 0.00 | 0.00 | 0.00 | 52 | 1008.8 |
| 20260504035055 | 51 | 214 | 5.0 | 11.0 | 0.00 | 0.00 | 0.00 | 54 | 1008.6 |
| 20260504034055 | 51 | 214 | 4.0 | 12.0 | 0.00 | 0.00 | 0.00 | 53 | 1008.7 |
| 20260504033055 | 51 | 213 | 6.0 | 13.0 | 0.00 | 0.00 | 0.00 | 53 | 1008.8 |
| 20260504031055 | 50 | 234 | 4.0 | 9.0 | 0.00 | 0.00 | 0.00 | 55 | 1008.8 |
| 20260504030054 | 50 | 220 | 4.0 | 7.0 | 0.00 | 0.00 | 0.00 | 55 | 1008.9 |
| 20260504025055 | 50 | 221 | 5.0 | 9.0 | 0.00 | 0.00 | 0.00 | 56 | 1009.0 |
| 20260504024054 | 50 | 224 | 6.0 | 8.0 | 0.00 | 0.00 | 0.00 | 58 | 1009.1 |
| 20260504023055 | 50 | 241 | 3.0 | 18.0 | 0.00 | 0.00 | 0.00 | 58 | 1009.3 |
| 20260504022054 | 49 | 242 | 18.0 | 18.0 | 0.00 | 0.00 | 0.00 | 58 | 1009.6 |
| 20260504021054 | 50 | 306 | 7.0 | 22.0 | 0.00 | 0.00 | 0.00 | 59 | 1009.7 |
| 20260504015054 | 51 | 269 | 9.0 | 16.0 | 0.00 | 0.00 | 0.00 | 51 | 1009.4 |
| 20260504014054 | 51 | 254 | 5.0 | 13.0 | 0.00 | 0.00 | 0.00 | 52 | 1009.3 |
| 20260504013055 | 51 | 271 | 9.0 | 14.0 | 0.00 | 0.00 | 0.00 | 52 | 1009.2 |
| 20260504012054 | 51 | 265 | 6.0 | 9.0 | 0.00 | 0.00 | 0.00 | 53 | 1009.2 |
| 20260504011054 | 50 | 247 | 7.0 | 8.0 | 0.00 | 0.00 | 0.00 | 54 | 1009.1 |
| 20260504010054 | 49 | 211 | 2.0 | 11.0 | 0.00 | 0.00 | 0.00 | 57 | 1009.0 |
| 20260504005054 | 49 | 211 | 3.0 | 9.0 | 0.00 | 0.00 | 0.00 | 59 | 1008.8 |
| 20260504004054 | 49 | 211 | 6.0 | 9.0 | 0.00 | 0.00 | 0.00 | 59 | 1008.6 |